Total_Precipitation_Accumulation
0.00 0.00 0.00 0.01 0.03 0.02 0.02 0.03 0.06 0.09 0.08 0.07 0.07 0.08 0.10 0.09 0.06 0.05 0.05 0.06 0.09 0.13 0.15 0.15 0.11 0.08 0.07 0.05 0.02 0.00 0.00 0.00 0.00 0.00 0.00 0.01 0.01 0.03 0.07 0.09 0.10 0.15 0.06
0.00 0.00 0.00 0.00 0.01 0.02 0.03 0.04 0.05 0.07 0.08 0.07 0.08 0.10 0.10 0.07 0.04 0.04 0.04 0.05 0.08 0.12 0.13 0.12 0.10 0.07 0.07 0.04 0.01 0.00 0.00 0.00 0.00 0.00 0.00 0.01 0.02 0.02 0.05 0.06 0.08 0.21 0.14
0.00 0.00 0.00 0.00 0.01 0.01 0.02 0.05 0.05 0.04 0.05 0.05 0.06 0.06 0.05 0.03 0.03 0.03 0.03 0.05 0.07 0.08 0.08 0.05 0.03 0.02 0.02 0.01 0.00 0.00 0.00 0.00 0.00 0.01 0.03 0.06 0.12 0.03 0.07 0.06 0.04 0.08 0.11
0.00 0.00 0.00 0.00 0.01 0.01 0.01 0.03 0.06 0.05 0.03 0.03 0.04 0.03 0.02 0.02 0.02 0.02 0.04 0.05 0.06 0.05 0.03 0.02 0.01 0.01 0.01 0.00 0.00 0.00 0.00 0.00 0.00 0.02 0.08 0.10 0.15 0.12 0.12 0.12 0.08 0.05 0.06
0.00 0.00 0.01 0.01 0.01 0.03 0.02 0.01 0.03 0.03 0.03 0.03 0.03 0.02 0.03 0.04 0.03 0.02 0.03 0.05 0.05 0.05 0.06 0.06 0.04 0.01 0.00 0.00 0.00 0.00 0.00 0.00 0.02 0.06 0.14 0.16 0.18 0.20 0.17 0.17 0.18 0.12 0.09
0.00 0.00 0.00 0.01 0.02 0.03 0.03 0.02 0.02 0.02 0.03 0.03 0.03 0.04 0.05 0.05 0.04 0.03 0.03 0.04 0.05 0.07 0.10 0.13 0.08 0.02 0.01 0.00 0.00 0.00 0.00 0.01 0.04 0.13 0.18 0.26 0.23 0.16 0.15 0.18 0.19 0.15 0.10
0.00 0.00 0.00 0.01 0.02 0.04 0.05 0.05 0.05 0.03 0.03 0.04 0.04 0.04 0.03 0.05 0.04 0.04 0.04 0.04 0.06 0.10 0.13 0.11 0.05 0.01 0.00 0.00 0.01 0.01 0.01 0.01 0.03 0.09 0.17 0.31 0.30 0.16 0.12 0.13 0.14 0.12 0.07
0.00 0.00 0.00 0.01 0.02 0.04 0.06 0.06 0.08 0.06 0.04 0.04 0.04 0.04 0.04 0.04 0.05 0.07 0.06 0.06 0.09 0.14 0.14 0.06 0.01 0.00 0.00 0.00 0.01 0.01 0.01 0.01 0.01 0.04 0.09 0.20 0.22 0.14 0.09 0.08 0.09 0.08 0.06
0.00 0.00 0.00 0.00 0.01 0.02 0.04 0.05 0.06 0.07 0.05 0.03 0.03 0.07 0.09 0.10 0.11 0.12 0.10 0.09 0.12 0.14 0.09 0.03 0.00 0.00 0.00 0.00 0.00 0.00 0.00 0.01 0.01 0.03 0.06 0.11 0.17 0.08 0.03 0.02 0.02 0.02 0.02
0.00 0.00 0.00 0.00 0.02 0.02 0.01 0.01 0.03 0.04 0.05 0.03 0.03 0.07 0.10 0.10 0.10 0.10 0.08 0.08 0.09 0.09 0.06 0.02 0.01 0.00 0.00 0.00 0.00 0.00 0.00 0.00 0.00 0.01 0.01 0.02 0.03 0.01 0.00 0.00 0.00 0.00 0.00
0.00 0.00 0.00 0.00 0.04 0.04 0.01 0.00 0.00 0.01 0.02 0.01 0.02 0.04 0.05 0.15 0.19 0.16 0.09 0.07 0.07 0.06 0.04 0.02 0.01 0.00 0.00 0.00 0.00 0.00 0.00 0.00 0.00 0.00 0.00 0.00 0.00 0.00 0.00 0.00 0.00 0.00 0.00
0.00 0.00 0.00 0.00 0.01 0.06 0.02 0.00 0.00 0.00 0.01 0.02 0.06 0.04 0.11 0.20 0.20 0.13 0.08 0.06 0.05 0.05 0.02 0.01 0.00 0.00 0.00 0.00 0.00 0.00 0.00 0.00 0.00 0.00 0.00 0.00 0.00 0.01 0.00 0.00 0.00 0.00 0.00
0.00 0.00 0.00 0.01 0.03 0.13 0.03 0.00 0.01 0.01 0.04 0.06 0.08 0.09 0.13 0.12 0.10 0.09 0.10 0.08 0.07 0.04 0.03 0.02 0.00 0.00 0.00 0.00 0.00 0.00 0.00 0.00 0.00 0.00 0.00 0.00 0.01 0.01 0.01 0.00 0.00 0.00 0.00
0.00 0.00 0.00 0.01 0.01 0.02 0.01 0.01 0.01 0.01 0.02 0.05 0.08 0.04 0.08 0.10 0.10 0.09 0.12 0.12 0.12 0.09 0.05 0.02 0.01 0.00 0.00 0.00 0.00 0.00 0.00 0.00 0.00 0.00 0.00 0.00 0.01 0.02 0.02 0.02 0.01 0.01 0.02
0.01 0.00 0.00 0.00 0.00 0.00 0.01 0.01 0.02 0.02 0.01 0.01 0.02 0.02 0.04 0.08 0.10 0.09 0.09 0.09 0.09 0.07 0.05 0.02 0.01 0.00 0.00 0.00 0.00 0.00 0.00 0.00 0.00 0.00 0.00 0.01 0.02 0.03 0.04 0.04 0.03 0.03 0.04
0.01 0.00 0.00 0.00 0.00 0.00 0.00 0.00 0.01 0.01 0.01 0.01 0.01 0.02 0.03 0.09 0.12 0.11 0.10 0.10 0.08 0.07 0.05 0.03 0.01 0.00 0.00 0.00 0.00 0.00 0.00 0.00 0.00 0.00 0.00 0.01 0.02 0.02 0.02 0.03 0.03 0.04 0.04
0.01 0.00 0.00 0.00 0.00 0.00 0.00 0.00 0.00 0.00 0.01 0.01 0.02 0.04 0.04 0.08 0.12 0.13 0.16 0.15 0.10 0.07 0.06 0.05 0.03 0.01 0.01 0.00 0.00 0.00 0.00 0.01 0.00 0.01 0.00 0.01 0.01 0.01 0.01 0.02 0.02 0.02 0.02
0.00 0.00 0.00 0.00 0.00 0.00 0.00 0.01 0.02 0.03 0.03 0.03 0.04 0.04 0.03 0.05 0.08 0.11 0.15 0.15 0.11 0.10 0.10 0.09 0.08 0.07 0.05 0.04 0.03 0.02 0.02 0.02 0.01 0.01 0.00 0.00 0.00 0.00 0.01 0.01 0.01 0.01 0.02
0.00 0.00 0.00 0.00 0.01 0.01 0.02 0.04 0.05 0.03 0.04 0.05 0.06 0.06 0.07 0.10 0.13 0.17 0.20 0.23 0.23 0.23 0.22 0.20 0.18 0.14 0.11 0.09 0.07 0.04 0.03 0.02 0.01 0.01 0.00 0.00 0.00 0.00 0.00 0.00 0.01 0.02 0.02
0.01 0.01 0.00 0.01 0.02 0.02 0.02 0.03 0.05 0.09 0.14 0.15 0.17 0.19 0.24 0.30 0.37 0.41 0.42 0.42 0.38 0.33 0.29 0.24 0.21 0.18 0.15 0.11 0.07 0.04 0.02 0.01 0.01 0.00 0.00 0.00 0.00 0.00 0.00 0.00 0.00 0.01 0.02
0.01 0.01 0.01 0.01 0.04 0.06 0.11 0.18 0.28 0.42 0.49 0.51 0.54 0.60 0.69 0.77 0.81 0.76 0.66 0.58 0.51 0.43 0.35 0.27 0.20 0.15 0.12 0.09 0.06 0.04 0.02 0.01 0.00 0.00 0.00 0.00 0.00 0.00 0.00 0.00 0.00 0.00 0.01
0.03 0.03 0.02 0.03 0.12 0.24 0.39 0.58 0.77 0.89 0.97 1.04 1.07 1.10 1.16 1.22 1.20 1.11 0.97 0.87 0.78 0.58 0.36 0.21 0.14 0.11 0.09 0.07 0.04 0.02 0.01 0.00 0.00 0.00 0.00 0.00 0.00 0.00 0.00 0.00 0.00 0.00 0.00
0.04 0.06 0.06 0.10 0.28 0.53 0.77 1.04 1.27 1.43 1.59 1.63 1.55 1.51 1.50 1.47 1.40 1.35 1.18 0.92 0.64 0.38 0.23 0.15 0.12 0.09 0.05 0.02 0.01 0.00 0.00 0.00 0.00 0.00 0.00 0.00 0.00 0.00 0.00 0.00 0.00 0.00 0.00
0.07 0.09 0.10 0.19 0.43 0.76 1.03 1.36 1.66 1.85 2.03 2.15 1.97 1.79 1.56 1.36 1.26 1.13 0.92 0.62 0.37 0.22 0.14 0.09 0.05 0.02 0.01 0.00 0.00 0.00 0.00 0.00 0.00 0.00 0.00 0.00 0.00 0.00 0.00 0.00 0.00 0.00 0.00
0.15 0.12 0.12 0.27 0.58 0.97 1.34 1.65 1.84 2.00 2.13 2.07 1.80 1.53 1.28 1.04 0.78 0.57 0.40 0.25 0.15 0.09 0.05 0.02 0.01 0.00 0.00 0.00 0.00 0.00 0.00 0.00 0.00 0.00 0.00 0.00 0.00 0.00 0.00 0.00 0.00 0.00 0.00
0.19 0.13 0.19 0.40 0.79 1.18 1.45 1.68 1.79 1.82 1.71 1.52 1.27 0.96 0.77 0.63 0.44 0.25 0.12 0.06 0.03 0.01 0.01 0.00 0.00 0.00 0.00 0.00 0.00 0.00 0.00 0.00 0.00 0.00 0.00 0.00 0.00 0.00 0.00 0.00 0.00 0.00 0.00